Location: �quirre
(50.4736°N, 2.2351°E)
Time: 03:36:54
(UTC+00:00)

MOZ.5/SAFIR/RUBIN 5/SL-8 - Pass Details

Date: 07 August 2020
Orbit: 677 x 706 km, 98.1° (Epoch: 25 September)

Event Time Altitude Azimuth Distance (km) Brightness Sun altitude
Exits shadow 01:36:56 43° 213° (SSW) 994 4.1 -19.7°
Maximum altitude 01:38:06 54° 260° (W) 859 4.0 -19.6°
Drops below altitude 10° 01:42:47 10° 338° (NNW) 2,178 6.9 -19.3°
Sets 01:45:06 0° 343° (NNW) 3,096 7.8 -19.1°
